Immokalee Regional Airport [I, FL

7:35 PM EDT on May 23, 2018 (GMT -0400)
Immokalee

Weather History for KIMM - December, 2013

Change the Weather History Date:

Monday, December 23, 2013

  Actual Average (KRSW) Record (KRSW)
Temperature  
Mean Temperature 76 °F -  
Max Temperature 89 °F 75 °F 86 °F (1951)
Min Temperature 62 °F 54 °F 32 °F (1973)
Cooling Degree Days 10    
Growing Degree Days 26 (Base 50)    
Moisture  
Dew Point 72 °F    
Average Humidity 71    
Maximum Humidity 100    
Minimum Humidity 49    
Precipitation  
Precipitation 0.00 in - - ()
Sea Level Pressure  
Sea Level Pressure 30.16 in    
Wind  
Wind Speed 2 mph (South)    
Max Wind Speed 12 mph    
Max Gust Speed 16 mph    
Visibility 7 miles    
Events      
Averages and records for this station are not official NWS values.
T = Trace of Precipitation, MM = Missing Value Source: NWS Daily Summary

Daily Weather History Graph

Daily Weather History Graph

Search for Another Location

Airport or City:

Astronomy

Dec. 23, 2013 Rise Set
Actual Time 7:10 AM EST 5:39 PM EST
Civil Twilight 6:44 AM EST 6:04 PM EST
Nautical Twilight 6:16 AM EST 6:33 PM EST
Astronomical Twilight 5:47 AM EST 7:02 PM EST
Moon 11:15 PM EST 11:04 AM EST
Length of Visible Light 11h 19m
Length of Day
10h 29m
Waning Gibbous, 68% of the Moon is Illuminated
Dec 23
Waning Gibbous
Dec 25
Last Quarter
Jan 1
New
Jan 7
First Quarter
Jan 15
Full

Hourly Weather History & Observations

Time (EST) Temp. Heat Index Dew Point Humidity Pressure Visibility Wind Dir Wind Speed Gust Speed Precip Events Conditions
12:15 AM 64.4 °F - - N/A% 30.17 in 3.0 mi Calm Calm - 0.00 in   Clear
12:35 AM 64.4 °F - - N/A% 30.17 in 0.2 mi Calm Calm - 0.00 in   Unknown
12:55 AM 64.4 °F - - N/A% 30.17 in 0.2 mi Calm Calm - 0.00 in   Unknown
1:15 AM 64.4 °F - - N/A% 30.16 in 0.5 mi Calm Calm - 0.00 in   Unknown
1:35 AM 64.4 °F - - N/A% 30.16 in 2.5 mi Calm Calm - 0.00 in   Clear
1:55 AM 62.6 °F - - N/A% 30.16 in 0.8 mi Calm Calm - 0.00 in   Unknown
2:15 AM 62.6 °F - - N/A% 30.15 in 0.5 mi Calm Calm - 0.00 in   Unknown
2:35 AM 62.6 °F - - N/A% 30.15 in 0.8 mi Calm Calm - 0.00 in   Mostly Cloudy
2:55 AM 66.2 °F - - N/A% 30.14 in 3.0 mi Calm Calm - 0.00 in   Partly Cloudy
3:15 AM 69.8 °F - - N/A% 30.14 in 5.0 mi Calm Calm - 0.00 in   Clear
3:35 AM 69.8 °F - - N/A% 30.14 in 5.0 mi Calm Calm - 0.00 in   Clear
3:55 AM 69.8 °F - - N/A% 30.13 in 7.0 mi ESE 5.8 mph - 0.00 in   Clear
4:15 AM 69.8 °F - - N/A% 30.13 in 7.0 mi ESE 5.8 mph - 0.00 in   Clear
4:35 AM 69.8 °F - - N/A% 30.13 in 7.0 mi Calm Calm - 0.00 in   Clear
4:55 AM 69.8 °F - - N/A% 30.13 in 7.0 mi ESE 6.9 mph - 0.00 in   Clear
5:15 AM 69.8 °F - - N/A% 30.13 in 7.0 mi ESE 4.6 mph - 0.00 in   Clear
5:35 AM 69.8 °F - - N/A% 30.14 in 5.0 mi Calm Calm - 0.00 in   Clear
5:55 AM 69.8 °F - - N/A% 30.14 in 3.0 mi Calm Calm - 0.00 in   Clear
6:15 AM 68.0 °F - - N/A% 30.14 in 0.2 mi Calm Calm - 0.00 in   Unknown
6:35 AM 68.0 °F - - N/A% 30.15 in 0.5 mi Calm Calm - 0.00 in   Unknown
6:55 AM 68.0 °F - - N/A% 30.15 in 0.5 mi Calm Calm - 0.00 in   Unknown
7:15 AM 66.2 °F - - N/A% 30.16 in 0.2 mi Calm Calm - 0.00 in   Unknown
7:35 AM 64.4 °F - - N/A% 30.16 in 0.2 mi Calm Calm - 0.00 in   Unknown
7:55 AM 66.2 °F - - N/A% 30.17 in 0.2 mi Calm Calm - 0.00 in   Unknown
8:15 AM 68.0 °F - - N/A% 30.17 in 0.2 mi Calm Calm - 0.00 in   Unknown
8:35 AM 71.6 °F - - N/A% 30.17 in 5.0 mi Calm Calm - 0.00 in   Clear
8:55 AM 73.4 °F - - N/A% 30.18 in 9.0 mi Calm Calm - 0.00 in   Clear
9:15 AM 73.4 °F - - N/A% 30.19 in 9.0 mi SE 5.8 mph - 0.00 in   Partly Cloudy
9:35 AM 77.0 °F - - N/A% 30.19 in 9.0 mi SSE 8.1 mph - 0.00 in   Clear
9:55 AM 78.8 °F - 78.8 °F 100% 30.19 in 10.0 mi SSE 9.2 mph - 0.00 in   Clear
10:15 AM 80.6 °F 89.3 °F 80.6 °F 100% 30.19 in 9.0 mi SSE 11.5 mph 16.1 mph 0.00 in   Scattered Clouds
10:35 AM 82.4 °F 92.4 °F 78.8 °F 89% 30.20 in 10.0 mi SSE 11.5 mph - 0.00 in   Mostly Cloudy
10:55 AM 82.4 °F 92.4 °F 78.8 °F 89% 30.20 in 10.0 mi SSE 9.2 mph - 0.00 in   Mostly Cloudy
11:15 AM 84.2 °F 92.3 °F 75.2 °F 74% 30.19 in 10.0 mi SSE 10.4 mph - 0.00 in   Mostly Cloudy
11:35 AM 87.8 °F 95.6 °F 73.4 °F 62% 30.19 in 10.0 mi SSE 10.4 mph - 0.00 in   Scattered Clouds
11:55 AM 84.2 °F 90.9 °F 73.4 °F 70% 30.18 in 10.0 mi South 8.1 mph - 0.00 in   Mostly Cloudy
12:15 PM 84.2 °F 90.9 °F 73.4 °F 70% 30.18 in 10.0 mi South 6.9 mph - 0.00 in   Mostly Cloudy
12:35 PM 84.2 °F 90.9 °F 73.4 °F 70% 30.17 in 10.0 mi SW 4.6 mph - 0.00 in   Partly Cloudy
12:55 PM 87.8 °F 93.8 °F 71.6 °F 58% 30.15 in 10.0 mi SSW 8.1 mph - 0.00 in   Partly Cloudy
1:15 PM 87.8 °F 92.6 °F 69.8 °F 55% 30.15 in 10.0 mi South 6.9 mph - 0.00 in   Scattered Clouds
1:35 PM 86.0 °F 91.8 °F 71.6 °F 62% 30.14 in 10.0 mi SSW 3.5 mph - 0.00 in   Scattered Clouds
1:55 PM 89.6 °F 94.7 °F 69.8 °F 52% 30.13 in 9.0 mi SW 8.1 mph - 0.00 in   Partly Cloudy
2:15 PM 89.6 °F 94.7 °F 69.8 °F 52% 30.12 in 9.0 mi SW 6.9 mph - 0.00 in   Clear
2:35 PM 89.6 °F 94.7 °F 69.8 °F 52% 30.12 in 9.0 mi SW 8.1 mph - 0.00 in   Partly Cloudy
2:55 PM 89.6 °F 93.4 °F 68.0 °F 49% 30.12 in 10.0 mi SW 9.2 mph - 0.00 in   Partly Cloudy
3:15 PM 89.6 °F 93.4 °F 68.0 °F 49% 30.12 in 10.0 mi SSW 10.4 mph - 0.00 in   Clear
3:35 PM 87.8 °F 90.4 °F 66.2 °F 49% 30.12 in 10.0 mi SW 10.4 mph - 0.00 in   Clear
3:55 PM 87.8 °F 91.4 °F 68.0 °F 52% 30.12 in 10.0 mi WSW 9.2 mph - 0.00 in   Partly Cloudy
4:15 PM 87.8 °F 91.4 °F 68.0 °F 52% 30.12 in 10.0 mi SW 8.1 mph - 0.00 in   Partly Cloudy
4:35 PM 86.0 °F 89.4 °F 68.0 °F 55% 30.12 in 10.0 mi SW 5.8 mph - 0.00 in   Partly Cloudy
4:55 PM 84.2 °F 87.3 °F 68.0 °F 58% 30.12 in 10.0 mi SSW 6.9 mph - 0.00 in   Clear
5:15 PM 84.2 °F 88.4 °F 69.8 °F 62% 30.13 in 10.0 mi South 5.8 mph - 0.00 in   Clear
5:35 PM 80.6 °F 84.6 °F 71.6 °F 74% 30.14 in 10.0 mi ESE 6.9 mph - 0.00 in   Scattered Clouds
5:55 PM 78.8 °F - 73.4 °F 83% 30.14 in 10.0 mi SE 6.9 mph - 0.00 in   Scattered Clouds
6:15 PM 75.2 °F - 75.2 °F 100% 30.15 in 10.0 mi Calm Calm - 0.00 in   Clear
6:35 PM 73.4 °F - 73.4 °F 100% 30.15 in 10.0 mi Calm Calm - 0.00 in   Clear
6:55 PM 73.4 °F - 73.4 °F 100% 30.16 in 10.0 mi Calm Calm - 0.00 in   Clear
7:15 PM 73.4 °F - 73.4 °F 100% 30.17 in 10.0 mi Calm Calm - 0.00 in   Clear
7:35 PM 73.4 °F - 73.4 °F 100% 30.17 in 10.0 mi Calm Calm - 0.00 in   Clear
7:55 PM 71.6 °F - - N/A% 30.17 in 10.0 mi Calm Calm - 0.00 in   Clear
8:15 PM 71.6 °F - - N/A% 30.18 in 10.0 mi Calm Calm - 0.00 in   Clear
8:35 PM 69.8 °F - - N/A% 30.18 in 10.0 mi Calm Calm - 0.00 in   Clear
8:55 PM 69.8 °F - - N/A% 30.18 in 10.0 mi Calm Calm - 0.00 in   Partly Cloudy
9:15 PM 68.0 °F - - N/A% 30.19 in 10.0 mi Calm Calm - 0.00 in   Mostly Cloudy
9:35 PM 68.0 °F - - N/A% 30.19 in 10.0 mi Calm Calm - 0.00 in   Mostly Cloudy
9:55 PM 68.0 °F - - N/A% 30.19 in 10.0 mi Calm Calm - 0.00 in   Scattered Clouds
10:15 PM 66.2 °F - - N/A% 30.19 in 10.0 mi Calm Calm - 0.00 in   Clear
10:35 PM 66.2 °F - - N/A% 30.18 in 9.0 mi Calm Calm - 0.00 in   Clear
10:55 PM 66.2 °F - - N/A% 30.18 in 10.0 mi Calm Calm - 0.00 in   Clear
11:15 PM 66.2 °F - - N/A% 30.18 in 10.0 mi Calm Calm - 0.00 in   Clear
11:35 PM 66.2 °F - - N/A% 30.18 in 9.0 mi Calm Calm - 0.00 in   Clear
11:55 PM 66.2 °F - - N/A% 30.17 in 9.0 mi Calm Calm - 0.00 in   Clear